Orbital Elements at Epoch 2459200.5 (2020-Dec-17.0) TDB
Reference: JPL 26 (heliocentric ecliptic J2000)
Element | Value | Uncertainty (1-sigma) | Units |
e | .1574942186694271 | 9.7302e-08 | |
a | 3.203861611726293 | 3.5993e-08 | au |
q | 2.699271930462489 | 2.9562e-07 | au |
i | 28.084557103968 | 8.0069e-06 | deg |
node | 11.0190498774197 | 1.0309e-05 | deg |
peri | 352.1809600877 | 2.1888e-05 | deg |
M | 40.48232089693927 | 1.8198e-05 | deg |
tp | 2458964.956050711152 (2020-Apr-25.45605071) | 0.00010534 | TDB |
period | 2094.638347437151 5.73 | 3.5297e-05 9.664e-08 | d yr |
n | .1718673776981454 | 2.8962e-09 | deg/d |
Q | 3.708451292990097 | 4.1661e-08 | au |
|
| | Orbit Determination Parameters
Additional Information
|